Regional Weather Roundup
Issued by NWS Cleveland, OH

Home | Current Version | Previous Version | Graphics & Text | Print | Product List | Glossary On
Versions: 1 2 3 4 5 6 7 8 9 10 11 12 13 14 15 16 17 18 19 20 21 22 23 24 25 26 27 28 29 30 31 32 33 34 35 36 37 38 39 40 41 42 43 44 45 46 47 48 49 50
000
ASUS41 KCLE 091110
RWRCLE
OHIO REGIONAL WEATHER ROUNDUP
NATIONAL WEATHER SERVICE WILMINGTON, OH
600 AM EST TUE FEB 09 2016

NOTE: "FAIR" INDICATES FEW OR NO CLOUDS BELOW 12,000 FEET WITH NO
SIGNIFICANT WEATHER AND/OR OBSTRUCTIONS TO VISIBILITY.

OHZ001>008-015>018-024>027-034-035-043-044-091200-
   NORTHWEST OHIO

CITY           SKY/WX    TMP DP  RH WIND       PRES   REMARKS
DEFIANCE       FLURRIES  29  23  78 W8        29.61R WCI  21
FINDLAY        CLOUDY    28  23  81 W16       29.60R WCI  16
TOLEDO EXPRESS CLOUDY    29  25  85 W16       29.57R WCI  17
TOLEDO EXEC    CLOUDY    30  25  81 W10       29.58R WCI  21
LIMA           CLOUDY    26  22  84 W16       29.62R WCI  14
$$

OHZ009>014-019>023-028>033-038-089-091200-
   NORTHEAST OHIO

CITY           SKY/WX    TMP DP  RH WIND       PRES   REMARKS
CLE-HOPKINS    CLOUDY    31  27  85 SW8       29.57S WCI  23
CLE-LAKEFRONT  CLOUDY    33  29  85 SW13      29.55R WCI  24
CUY CO. ARPT   NOT AVBL
LORAIN-ELYRIA  MOCLDY    30  26  85 W15       29.56S WCI  19
ASHTABULA      CLOUDY    32  30  92 W9        29.53R WCI  24
AKRON-CANTON   CLOUDY    30  26  85 W7        29.54R WCI  23
WOOSTER        CLOUDY    29  25  85 W7        29.56R WCI  22
MANSFIELD      CLOUDY    28  26  92 W8        29.56R WCI  20
YOUNGSTOWN     FLURRIES  32  29  88 W7        29.52S WCI  26
$$

OHZ042-051>053-060>062-070>072-077>081-091200-
  SOUTHWEST OHIO

CITY           SKY/WX    TMP DP  RH WIND       PRES   REMARKS
CINC-COVINGTON LGT SNOW  20  17  88 SW8       29.72R FOG     WCI  10
CINC-LUNKEN    LGT SNOW  21  19  92 SW10      29.76R VSB 1   WCI  10
HAMILTON       LGT SNOW  22  19  89 SW8       29.73R FOG     WCI  12
DAYTON         LGT SNOW  23  20  88 W15       29.66R FOG     WCI  10
WRIGHT-PAT AFB LGT SNOW  23  19  86 SW10      29.67R FOG     WCI  12
DAYTON GENERAL LGT SNOW  21  17  84 SW7       29.67R VSB 3/4 WCI  12
WILMINGTON     LGT SNOW  20  17  88 W14       29.66S FOG     WCI   7
$$

OHZ036-037-039>041-045>050-054>059-063>069-073>076-082>088-091200-
  CENTRAL AND SOUTHEAST OHIO

CITY           SKY/WX    TMP DP  RH WIND       PRES   REMARKS
COLUMBUS       LGT SNOW  25  22  88 SW9       29.63R VSB 1   WCI  15
OSU AIRPORT    LGT SNOW  26  23  88 W15       29.62S FOG     WCI  14
BOLTON FIELD   LGT SNOW  23  21  93 SW12      29.65R WCI  12
RICKENBACK AFB LGT SNOW  22  20  92 SW16      29.65R WCI   8
NEWARK         LGT SNOW  26  22  84 MISG      29.61R FOG
MARION         CLOUDY    27  21  78 W12       29.60R WCI  17
LANCASTER      LGT SNOW  22  19  89 W14       29.64R FOG     WCI   9
ZANESVILLE     LGT SNOW  27  22  81 SW13      29.60R WCI  16
NEW PHILLY     FAIR      30  26  85 NW5       29.57R WCI  25
$$



USA.gov is the U.S. government's official web portal to all federal, state and local government web resources and services.